EW8324 Weather Reports


time (UTC)temp
C
wind
direction
speed
KPH
gust
KPH
rain 1hr
cm
rain 24hr
cm
rain mn
cm
humidity
%
barometer
mb
20260504223024 27 162 0.0 6.4 0.00 0.20 0.10 59 1006.5
20260504222516 27 171 0.0 0.0 0.00 0.20 0.10 59 1006.6
20260504222240 27 162 0.0 0.0 0.00 0.20 0.10 59 1006.7
20260504222124 27 162 0.0 0.0 0.00 0.20 0.10 59 1006.7
20260504221515 27 159 0.0 0.0 0.00 0.20 0.10 58 1006.8
20260504221029 27 196 0.0 0.0 0.00 0.20 0.10 57 1006.7
20260504220516 27 161 0.0 4.8 0.00 0.20 0.10 57 1006.8
20260504220018 27 313 0.0 4.8 0.00 0.23 0.10 57 1006.8
20260504215517 27 216 0.0 0.0 0.00 0.23 0.10 56 1006.8
20260504215017 27 258 0.0 0.0 0.00 0.23 0.10 56 1006.8
20260504214515 -17 0.0 0.0 0.00 0.23 0.10 1007.0
20260504214017 28 281 0.0 0.0 0.00 0.23 0.10 56 1006.8
20260504213515 27 285 0.0 0.0 0.00 0.23 0.10 56 1006.9
20260504213016 28 166 0.0 4.8 0.00 0.23 0.10 54 1007.0
20260504212515 28 162 1.6 4.8 0.00 0.23 0.10 54 1007.0
20260504212014 -17 0.0 0.0 0.00 0.23 0.10 1007.2
20260504211514 -17 0.0 0.0 0.00 0.23 0.10 1007.2
20260504211013 -17 0.0 0.0 0.00 0.23 0.10 1007.3
20260504210513 -17 0.0 0.0 0.00 0.23 0.10 1007.4
20260504210013 28 226 0.0 0.0 0.00 0.23 0.10 54 1007.3
20260504205512 28 195 0.0 0.0 0.00 0.23 0.10 55 1007.3
20260504205011 28 244 0.0 0.0 0.00 0.23 0.10 55 1007.7
20260504204509 28 274 0.0 0.0 0.00 0.23 0.10 53 1007.8
20260504204012 28 288 0.0 0.0 0.00 0.25 0.10 55 1007.7
20260504203950 28 241 0.0 0.0 0.00 0.25 0.10 52 1007.8
20260504203618 28 241 0.0 0.0 0.00 0.25 0.10 52 1007.8
20260504203012 28 202 0.0 0.0 0.00 0.25 0.10 53 1007.8
20260504202508 28 133 0.0 3.2 0.00 0.25 0.10 54 1007.9
20260504202011 28 165 0.0 3.2 0.00 0.25 0.10 53 1008.1
20260504201509 28 271 0.0 3.2 0.00 0.25 0.10 53 1008.1
20260504201236 28 281 0.0 0.0 0.00 0.25 0.10 54 1008.2
20260504201117 28 281 0.0 0.0 0.00 0.25 0.10 54 1008.2
20260504200509 28 248 0.0 0.0 0.00 0.25 0.10 53 1008.3
20260504200024 28 248 0.0 0.0 0.00 0.25 0.10 53 1008.4
20260504195507 28 227 0.0 0.0 0.00 0.25 0.10 55 1008.5
20260504195012 27 186 0.0 0.0 0.00 0.28 0.10 55 1008.6
20260504194505 -17 0.0 8.0 0.00 0.28 0.10 1008.6
20260504194228 27 165 3.2 8.0 0.00 0.28 0.10 53 1008.8
20260504194117 27 165 3.2 8.0 0.00 0.28 0.10 53 1008.8
20260504193507 -17 0.0 0.0 0.03 0.28 0.10 1008.8
20260504193008 28 94 0.0 0.0 0.03 0.28 0.10 53 1008.8
20260504192505 28 158 0.0 0.0 0.03 0.28 0.10 53 1008.8
20260504192007 28 206 0.0 0.0 0.03 0.28 0.10 53 1009.0
20260504191503 -17 0.0 0.0 0.03 0.28 0.10 1009.0
20260504191006 28 283 0.0 0.0 0.03 0.28 0.10 53 1009.2
20260504190506 28 203 0.0 0.0 0.03 0.28 0.10 52 1009.2
20260504190005 -17 0.0 0.0 0.03 0.30 0.10 1009.3
20260504185501 -17 0.0 0.0 0.03 0.30 0.10 1009.4
20260504185001 -17 0.0 0.0 0.03 0.30 0.10 1009.3
20260504184718 28 244 0.0 0.0 0.03 0.30 0.10 53 1009.3
20260504184613 28 244 0.0 0.0 0.03 0.30 0.10 53 1009.3
20260504184001 28 250 0.0 0.0 0.03 0.30 0.10 53 1009.5
20260504183459 -17 0.0 0.0 0.00 0.28 0.08 1009.5
20260504183000 28 186 0.0 0.0 0.00 0.28 0.08 52 1009.5
20260504182456 -17 0.0 0.0 0.00 0.28 0.08 1009.6
20260504181956 -17 0.0 0.0 0.00 0.28 0.08 1009.5
20260504181456 28 258 0.0 4.8 0.00 0.30 0.08 52 1009.7
20260504181216 28 234 0.0 4.8 0.00 0.30 0.08 52 1009.9
20260504181104 28 234 0.0 4.8 0.00 0.30 0.08 52 1009.9
20260504180453 28 175 0.0 0.0 0.00 0.30 0.08 53 1009.9
20260504175956 28 223 0.0 0.0 0.00 0.30 0.08 52 1009.8
20260504175449 27 237 0.0 0.0 0.00 0.30 0.08 53 1010.0
20260504174954 27 243 0.0 0.0 0.00 0.30 0.08 55 1010.0
20260504174718 27 255 0.0 8.0 0.00 0.30 0.08 56 1010.1
20260504174603 27 255 0.0 8.0 0.00 0.30 0.08 56 1010.1
20260504173957 26 288 0.0 8.0 0.00 0.30 0.08 56 1010.1
20260504173452 26 190 0.0 16.1 0.00 0.30 0.08 58 1010.2
20260504172955 26 142 3.2 16.1 0.00 0.33 0.08 54 1010.2
20260504172452 27 162 0.0 0.0 0.00 0.33 0.08 54 1010.4
20260504171956 27 165 0.0 0.0 0.00 0.33 0.08 54 1010.4
20260504171453 27 255 0.0 0.0 0.00 0.33 0.08 52 1010.6
20260504170950 27 144 0.0 0.0 0.00 0.33 0.08 55 1010.7
20260504170716 27 293 0.0 0.0 0.00 0.33 0.08 56 1010.6
20260504170600 27 293 0.0 0.0 0.00 0.33 0.08 56 1010.6
20260504150947 24 214 0.0 6.4 0.03 0.41 0.08 61 1011.5
20260504150711 24 148 0.0 6.4 0.03 0.41 0.08 61 1011.5
20260504150554 24 148 0.0 6.4 0.03 0.41 0.08 61 1011.5
20260504140944 22 240 0.0 1.6 0.00 0.41 0.05 66 1011.5
20260504140445 21 247 0.0 1.6 0.00 0.41 0.05 67 1011.5
20260504130444 15 245 0.0 0.0 0.00 0.43 0.05 82 1011.6
20260504130206 15 245 0.0 0.0 0.00 0.43 0.05 83 1011.6
20260504110441 15 245 0.0 0.0 0.00 0.46 0.03 85 1011.0
20260504100438 15 245 0.0 0.0 0.00 0.48 0.03 83 1011.2
20260504100222 15 245 0.0 0.0 0.00 0.48 0.03 83 1011.4
20260504081938 16 245 0.0 0.0 0.00 0.53 0.03 80 1011.9
20260504081435 16 245 0.0 0.0 0.03 0.53 0.03 80 1012.0
20260504081201 16 245 0.0 0.0 0.03 0.53 0.03 80 1012.0
20260504081047 16 245 0.0 0.0 0.03 0.53 0.03 80 1012.0
20260504080435 16 245 0.0 0.0 0.03 0.53 0.03 80 1012.2
20260504050433 18 245 0.0 0.0 0.03 0.61 0.00 68 1013.8
20260504045933 18 245 0.0 0.0 0.03 0.61 0.61 67 1013.7
20260504045433 18 245 0.0 0.0 0.03 0.61 0.61 67 1013.8
20260504044934 18 245 0.0 0.0 0.00 0.58 0.58 66 1013.9
20260504044426 18 245 0.0 0.0 0.00 0.58 0.58 66 1014.0
20260504043934 18 245 0.0 0.0 0.00 0.58 0.58 66 1013.9
20260504043431 18 245 0.0 0.0 0.00 0.58 0.58 66 1014.0
20260504042933 18 245 0.0 0.0 0.00 0.58 0.58 66 1013.9
20260504042432 18 245 0.0 0.0 0.00 0.61 0.58 64 1014.0
20260504041933 18 245 0.0 0.0 0.00 0.61 0.58 64 1013.9
20260504041444 19 245 0.0 0.0 0.00 0.61 0.58 64 1014.0
20260504040934 19 245 0.0 0.0 0.00 0.61 0.58 64 1014.0
20260504040431 19 245 0.0 0.0 0.00 0.61 0.58 64 1014.0
20260504040416 19 245 0.0 0.0 0.00 0.61 0.58 63 1014.0
20260504040038 19 245 0.0 0.0 0.00 0.61 0.58 63 1014.0
20260504035431 19 245 0.0 0.0 0.00 0.61 0.58 62 1013.9
20260504034931 20 245 0.0 0.0 0.00 0.61 0.58 61 1013.8
20260504034429 20 245 0.0 0.0 0.00 0.61 0.58 62 1013.9
20260504034147 20 245 0.0 0.0 0.00 0.61 0.58 59 1014.0
20260504034039 20 245 0.0 0.0 0.00 0.61 0.58 59 1014.0
20260504033430 20 245 0.0 0.0 0.00 0.64 0.58 59 1013.9
20260504032933 20 245 0.0 0.0 0.00 0.64 0.58 58 1014.0
20260504032429 20 245 0.0 0.0 0.00 0.64 0.58 58 1014.1
20260504031932 20 245 0.0 0.0 0.00 0.64 0.58 58 1014.0
20260504031429 20 245 0.0 0.0 0.00 0.64 0.58 57 1013.9
20260504030930 20 245 0.0 0.0 0.00 0.64 0.58 57 1013.9
20260504030430 20 245 0.0 0.0 0.03 0.64 0.58 56 1013.9
20260504030421 21 245 0.0 0.0 0.03 0.66 0.58 56 1013.9
20260504030040 21 245 0.0 0.0 0.03 0.66 0.58 56 1013.9
20260504025428 21 245 0.0 0.0 0.03 0.66 0.58 56 1013.8
20260504024931 21 245 0.0 0.0 0.03 0.66 0.58 56 1013.8
20260504024651 21 250 0.0 0.0 0.03 0.66 0.58 55 1013.7
20260504024535 21 250 0.0 0.0 0.03 0.66 0.58 55 1013.7
20260504023933 21 251 0.0 0.0 0.03 0.66 0.58 54 1013.7
20260504023429 21 251 0.0 0.0 0.03 0.66 0.58 54 1013.8
20260504023153 21 251 0.0 0.0 0.03 0.66 0.58 53 1013.8
20260504023033 21 251 0.0 0.0 0.03 0.66 0.58 53 1013.8
20260504022428 21 221 0.0 0.0 0.03 0.66 0.58 53 1013.8
20260504022152 21 221 0.0 0.0 0.03 0.69 0.58 52 1013.7
20260504022039 21 221 0.0 0.0 0.03 0.69 0.58 52 1013.7
20260504021427 21 226 0.0 0.0 0.03 0.69 0.58 52 1013.6
20260504021153 21 248 0.0 0.0 0.03 0.69 0.58 52 1013.6
20260504021041 21 248 0.0 0.0 0.03 0.69 0.58 52 1013.6
20260504020429 21 250 0.0 0.0 0.00 0.66 0.56 52 1013.5
20260504015930 22 220 0.0 0.0 0.00 0.66 0.56 52 1013.4
20260504015428 22 245 0.0 0.0 0.00 0.66 0.56 51 1013.3
20260504014928 22 221 0.0 0.0 0.00 0.66 0.56 52 1013.4
20260504014654 22 221 0.0 0.0 0.00 0.69 0.56 51 1013.4
20260504014538 22 221 0.0 0.0 0.00 0.69 0.56 51 1013.4
20260504013928 22 224 0.0 0.0 0.03 0.69 0.56 51 1013.4
20260504013428 22 244 0.0 0.0 0.03 0.69 0.56 51 1013.3
20260504012930 22 244 0.0 0.0 0.03 0.69 0.56 51 1013.1
20260504012429 22 155 0.0 1.6 0.03 0.69 0.56 50 1013.1
20260504012203 22 197 0.0 3.2 0.03 0.69 0.56 50 1013.1
20260504012049 22 197 0.0 3.2 0.03 0.69 0.56 50 1013.1
20260504011429 22 197 0.0 3.2 0.03 0.69 0.56 50 1013.1
20260504010930 22 151 0.0 1.6 0.03 0.71 0.56 49 1013.1
20260504010426 22 151 0.0 0.0 0.03 0.71 0.56 48 1013.0
20260504005928 23 155 0.0 0.0 0.03 0.71 0.56 48 1013.0
20260504005915 23 149 0.0 0.0 0.03 0.71 0.56 47 1013.0
20260504005535 23 149 0.0 0.0 0.03 0.71 0.56 47 1013.0
20260504004929 23 221 0.0 0.0 0.03 0.71 0.56 47 1013.1
20260504004427 23 223 0.0 0.0 0.03 0.71 0.56 47 1013.1
20260504003927 23 96 0.0 0.0 0.00 0.71 0.53 46 1013.1
20260504003426 23 169 0.0 0.0 0.00 0.71 0.53 46 1013.1
20260504002928 23 164 0.0 0.0 0.00 0.71 0.53 46 1013.1
20260504002425 24 164 0.0 0.0 0.00 0.71 0.53 45 1013.1
20260504001930 24 164 0.0 0.0 0.00 0.71 0.53 44 1012.9
20260504001647 24 162 0.0 0.0 0.00 0.71 0.53 44 1013.0
20260504001535 24 162 0.0 0.0 0.00 0.71 0.53 44 1013.0
20260504000928 24 158 0.0 1.6 0.00 0.74 0.53 43 1013.1
20260504000425 24 166 0.0 1.6 0.00 0.74 0.53 42 1013.2
20260503235929 24 144 0.0 0.0 0.03 0.74 0.53 43 1013.2
20260503235426 25 142 0.0 0.0 0.03 0.74 0.53 43 1013.2
20260503234926 25 243 0.0 0.0 0.03 0.74 0.53 43 1013.3
20260503234425 25 243 0.0 0.0 0.03 0.76 0.53 42 1013.1
20260503233927 25 159 0.0 0.0 0.03 0.76 0.53 42 1013.2
20260503233643 25 89 0.0 0.0 0.03 0.76 0.53 42 1013.3
20260503233534 25 89 0.0 0.0 0.03 0.76 0.53 42 1013.3
20260503232927 25 151 0.0 1.6 0.03 0.76 0.53 41 1013.2
20260503232424 25 188 0.0 1.6 0.03 0.76 0.53 40 1013.3
20260503231926 25 231 0.0 0.0 0.03 0.79 0.53 40 1013.4
20260503231655 25 231 0.0 0.0 0.03 0.79 0.53 40 1013.3
20260503231533 25 231 0.0 0.0 0.03 0.79 0.53 40 1013.3
20260503230928 25 231 0.0 1.6 0.03 0.79 0.53 40 1013.3
20260503230425 26 231 0.0 1.6 0.03 0.79 0.53 40 1013.3
20260503230158 26 185 0.0 0.0 0.03 0.76 0.51 41 1013.4
20260503230037 26 185 0.0 0.0 0.03 0.76 0.51 41 1013.4
20260503225423 26 228 0.0 3.2 0.03 0.79 0.51 40 1013.5
20260503224926 26 228 0.0 3.2 0.03 0.79 0.51 39 1013.5
20260503224424 26 219 0.0 1.6 0.03 0.79 0.51 39 1013.4
20260503224150 26 102 0.0 1.6 0.03 0.79 0.51 40 1013.5
20260503224033 26 102 0.0 1.6 0.03 0.79 0.51 40 1013.5
20260503223423 26 102 0.0 0.0 0.03 0.79 0.51 38 1013.6